Location: Sungai Apap
(2.6167°N, 113.3833°E)
Time: 13:27:53
(UTC+00:00)

SL-08 RB Rocket - Pass Details

Date: 25 May 2024
Orbit: 638 x 677 km, 97.8° (Epoch: 14 June)

Event Time Altitude Azimuth Distance (km) Brightness Sun altitude
Rises 21:29:23 0° 5° (N) 2,925 7.4 -11.6°
Reaches altitude 10° 21:31:35 10° 2° (N) 2,018 6.5 -11.1°
Maximum altitude 21:35:55 61° 282° (WNW) 727 3.7 -10.1°
Drops below altitude 10° 21:40:17 10° 202° (SSW) 2,033 5.8 -9.1°
Sets 21:42:31 0° 198° (SSW) 2,948 6.7 -8.6°
